OpenBCM V1.13 (Linux)

Packet Radio Mailbox

DB0FHN

[JN59NK Nuernberg]

 Login: GUEST





  
LU9DCE > SAT      07.06.16 10:00l 80 Lines 3692 Bytes #999 (0) @ WW
BID : 211_LU9DCE
Read: GUEST DK3UZ
Subj: KEPLES NOAA
Path: DB0FHN<DB0PM<OE5XBL<OE5XBR<OE1XAB<HG8LXL<CX2SA<LU9DCE
Sent: 160530/2017Z @:LU9DCE.TOR.BA.AR.SOAM #:211 [TORTUGUITAS] FBB7.00e
From: LU9DCE@LU9DCE.TOR.BA.AR.SOAM
To  : SAT@WW




NOAA 1 [-]              
1 04793U 70106A   16151.13834544 -.00000047  00000-0 -56572-5 0  9996
2 04793 101.8555 211.1969 0031461 274.2889 113.1576 12.53976798 81149
NOAA 2 [-]              
1 06235U 72082A   16151.51366490 -.00000009  00000-0  22450-3 0  9999
2 06235 101.6231 117.8880 0004158  15.3340  94.4253 12.53081759995516
NOAA 3 [-]              
1 06920U 73086A   16151.54678527 -.00000066  00000-0 -16154-3 0  9993
2 06920 101.8832 123.2218 0007084  72.4972  37.3323 12.40355917927108
NOAA 4 [-]              
1 07529U 74089A   16151.51879440 -.00000079  00000-0 -21841-3 0  9990
2 07529 101.5842 122.8898 0009462  43.9429  63.8838 12.53108904900105
NOAA 5 [-]              
1 09057U 76077A   16151.54607477 -.00000049  00000-0 -43552-4 0  9990
2 09057 101.7870 140.6393 0009217 284.5358 185.4221 12.37770217800667
TIROS N [P]             
1 11060U 78096A   16150.72899109 -.00000008  00000-0  18073-4 0  9998
2 11060  98.9465 192.7711 0010519   1.9693 358.1521 14.18112457158398
NOAA 6 [P]              
1 11416U 79057A   16151.51414167  .00000090  00000-0  48394-4 0  9995
2 11416  98.5426 137.6210 0009376 304.6215  55.4084 14.33345595925256
NOAA 7 [-]              
1 12553U 81059A   16151.52760508  .00000001  00000-0  23389-4 0  9996
2 12553  99.0022 121.4258 0010441 263.9745 235.0944 14.17189678805135
NOAA 8 [-]              
1 13923U 83022A   16151.51568611  .00000058  00000-0  40138-4 0  9993
2 13923  98.4837 145.5494 0014757 203.9178 156.1320 14.28527687727256
NOAA 9 [P]              
1 15427U 84123A   16151.49586419  .00000013  00000-0  28925-4 0  9991
2 15427  98.7597  94.9401 0014495 337.2827 134.1200 14.15956478624214
NOAA 10 [-]             
1 16969U 86073A   16151.55032804  .00000025  00000-0  27269-4 0  9993
2 16969  98.4688 165.8760 0011371 325.5328 202.2557 14.27968647545821
NOAA 11 [-]             
1 19531U 88089A   16151.20378771 -.00000028  00000-0  74356-5 0  9992
2 19531  98.6028 218.2121 0012169  60.2722 299.9661 14.15187448428581
NOAA 12 [-]             
1 21263U 91032A   16151.49532925  .00000033  00000-0  32275-4 0  9991
2 21263  98.5964 177.4897 0012924 322.8617  37.1667 14.25812284302199
NOAA 13 [-]             
1 22739U 93050A   16151.14403034 -.00000011  00000-0  16537-4 0  9992
2 22739  98.6138 209.5536 0009545 181.6591 178.4552 14.12655833175355
NOAA 14 [-]             
1 23455U 94089A   16151.45535737 -.00000018  00000-0  13252-4 0  9999
2 23455  98.7223 230.2210 0009829 161.5768 198.5763 14.14077278104740
NOAA 15 [B]             
1 25338U 98030A   16151.53756290  .00000099  00000-0  60438-4 0  9995
2 25338  98.7827 155.6517 0009635 233.5550 126.4742 14.25728769938478
NOAA 16 [-]             
1 26536U 00055A   16151.45374629 -.00000015  00000-0  15967-4 0  9995
2 26536  98.8983 221.2856 0009904 331.7811  28.2823 14.13145981808841
NOAA 17 [-]             
1 27453U 02032A   16151.50971295  .00000024  00000-0  27771-4 0  9994
2 27453  98.3818 126.0308 0010591 238.4263 121.5884 14.24946121724268
NOAA 18 [B]             
1 28654U 05018A   16151.49278820  .00000021  00000-0  37047-4 0  9991
2 28654  99.1971 157.9640 0015330  66.6211 293.6570 14.12286346568232
NOAA 19 [+]             
1 33591U 09005A   16151.51509036  .00000127  00000-0  94233-4 0  9993
2 33591  99.0386 108.1443 0012888 269.3543  90.6152 14.12076514376648
NPP [+]                 
1 37849U 11061A   16150.92806606  .00000028  00000-0  33999-4 0  9997
2 37849  98.7204  89.3705 0001364 116.4260 285.1630 14.19550911237721

-------------------------------------------------------------
 ____  ____
(__  )( __ \
  / /  (__ (
 (_/  (____/

BBS TELNET : LU9DCE.DYNO.COM
""""""""""""""""""""""""""""



Read previous mail | Read next mail


 09.06.2026 15:55:05lGo back Go up